#timestamp,LO_Frequency,Hit 
1498806015.5,286046986.1,N
1498806035.3,286046985.1,N
1498806055.2,286046984.7,N
1498806075.9,286046988.0,N
1498806095.7,286046987.2,N
1498806115.6,286046989.2,N
1498806135.4,286046987.0,N
1498806155.2,286046990.5,N
1498806175.0,286046994.1,N
1498806176.0,286046994.1,N
1498806195.8,286046994.0,N
1498806215.6,286046990.8,N
1498806235.4,286046992.7,N
1498806255.3,286046989.1,N
1498806275.1,286046987.9,N
1498806295.8,286046991.9,N
1498806315.7,286046993.5,N
1498806335.5,286046993.3,N
1498806355.3,286046991.7,N
1498806375.2,286046993.1,N
1498806395.9,286046996.3,N
1498806415.7,286046996.6,N
1498806435.6,286046997.4,N
1498806455.4,286046995.7,N
1498806475.2,286046995.9,N
1498806495.0,286046994.5,N
1498806496.0,286046994.5,N
1498806515.8,286046996.7,N
1498806535.6,286046999.7,N
1498806555.4,286047003.9,N
1498806575.3,286047003.8,N
1498806595.1,286047004.4,N
1498806615.8,286047000.0,N
1498806635.7,286047002.3,N
1498806655.5,286047002.0,N
1498806675.3,286047003.2,N
1498806695.2,286047004.2,N
1498806715.9,286047005.8,N
1498806735.7,286047010.1,N
1498806755.6,286047011.5,N
1498806775.4,286047009.5,N
1498806795.2,286047005.9,N
1498806815.0,286047001.5,N
1498806816.0,286047001.5,N
1498806835.8,286047005.7,N
1498806855.6,286047004.7,N
1498806875.4,286047006.3,N
1498806895.3,286047011.4,N
1498806915.1,286047017.1,N
1498806935.8,286047019.7,N
1498806955.7,286047023.5,N
1498806975.5,286047014.3,N
1498806995.3,286047009.6,N
1498807015.2,286047006.3,N
1498807035.9,286047005.1,N
1498807055.7,286047010.2,N
1498807075.6,286047010.5,N
1498807095.4,286047007.9,N
1498807115.2,286047005.5,N
1498807135.0,286047000.0,N
1498807136.0,286047000.0,N
1498807155.8,286046996.9,N
1498807175.6,286046995.0,N
1498807195.4,286046996.0,N
1498807215.3,286046994.0,N
1498807235.1,286046994.0,N
1498807255.8,286046993.1,N
1498807275.7,286046993.2,N
1498807295.5,286046992.3,N
1498807315.3,286046991.3,N
1498807335.2,286046988.4,N
1498807355.9,286046990.4,N
1498807375.7,286046990.0,N
1498807395.6,286046989.0,N
1498807415.4,286046991.7,N
1498807435.2,286046996.8,N
1498807455.0,286046996.9,N
1498807456.0,286046996.9,N
1498807475.8,286046995.5,N
1498807495.6,286046995.1,N
1498807515.4,286046993.8,N
1498807535.3,286046992.0,N
1498807555.1,286046992.5,N
1498807575.8,286046988.6,N
1498807595.7,286046991.3,N
1498807615.5,286046990.3,N
1498807635.3,286046990.2,N
1498807655.2,286046991.2,N
1498807675.9,286046989.3,N
1498807695.7,286046987.1,N
1498807715.6,286046987.9,N
1498807735.4,286046988.1,N
1498807755.2,286046989.3,N
1498807775.0,286046986.4,N
1498807776.0,286046986.4,N
1498807795.8,286046986.8,N
1498807815.6,286046985.7,N
1498807835.4,286046987.4,N
1498807855.3,286046988.3,N
1498807875.1,286046984.1,N
1498807895.8,286046984.0,N
1498807915.7,286046983.2,N
1498807935.5,286046981.5,N
1498807955.3,286046983.9,N
1498807975.2,286046990.7,N
1498807995.9,286046992.7,N
1498808015.7,286046991.9,N
1498808035.6,286046987.1,N
1498808055.4,286046984.9,N
1498808075.2,286046982.9,N
1498808095.0,286046986.1,N
1498808096.0,286046986.1,N
1498808115.8,286046986.2,N
1498808135.6,286046988.4,N
1498808155.4,286046986.1,N
1498808175.3,286046985.4,N
1498808195.1,286046986.2,N
1498808215.8,286046985.9,N
1498808235.7,286046986.0,N
1498808255.5,286046988.8,N
1498808275.3,286046988.6,N
1498808295.2,286046989.1,N
1498808315.9,286046987.7,N
1498808335.7,286046986.1,N
1498808355.6,286046986.5,N
1498808375.4,286046990.7,N
1498808395.2,286046993.4,N
1498808415.0,286046998.0,N
1498808416.0,286046998.0,N
1498808435.8,286046994.9,N
1498808455.6,286046996.0,N
1498808475.4,286046995.3,N
1498808495.3,286046990.9,N
1498808515.1,286046985.4,N
1498808535.8,286046982.1,N
1498808555.7,286046986.6,N
1498808575.5,286046988.2,N
1498808595.3,286046987.3,N
1498808615.2,286046988.4,N
1498808635.9,286046987.3,N
1498808655.7,286046989.4,N
1498808675.6,286046993.0,N
1498808695.4,286046988.7,N
1498808715.2,286046994.4,N
1498808735.1,286046995.4,N
1498808736.0,286046995.4,N
1498808755.8,286046993.1,N
1498808775.6,286046989.4,N
1498808795.4,286046991.2,N
1498808815.3,286046996.1,N
1498808835.1,286046997.0,N
1498808855.8,286046989.3,N
1498808875.7,286046985.7,N
1498808895.5,286046988.5,N
1498808915.3,286046992.7,N
1498808935.2,286046990.6,N
1498808955.9,286046988.7,N
1498808975.7,286046990.4,N
1498808995.6,286046995.1,N
1498809015.4,286046997.7,N
1498809035.2,286046999.1,N
1498809055.1,286046997.4,N
1498809056.0,286046997.4,N
1498809075.8,286046989.3,N
1498809095.6,286046988.3,N
1498809115.5,286046985.8,N
1498809135.3,286046988.1,N
1498809155.1,286046991.4,N
1498809175.8,286046991.1,N
1498809195.7,286046991.5,N
1498809215.5,286046989.3,N
1498809235.3,286046993.1,N
1498809255.2,286046992.8,N
1498809275.9,286046990.4,N
1498809295.7,286046991.5,N
1498809315.6,286046993.8,N
1498809335.4,286046999.6,N
1498809355.2,286046995.2,N
1498809375.1,286046994.1,N
1498809376.0,286046994.1,N
1498809395.8,286046993.4,N
1498809415.6,286046991.5,N
1498809435.5,286046993.1,N
1498809455.3,286046991.3,N
1498809475.1,286046990.7,N
1498809495.8,286046994.4,N
1498809515.7,286046992.1,N
1498809535.5,286046989.5,N
1498809555.3,286046993.2,N
1498809575.2,286046998.0,N
1498809595.0,286046993.9,N
1498809595.9,286046993.9,N
